Flag for Ukraine Weather past 2 weeks in Chernobyl, Ukraine

Now
32 °F

Chilly.


Feels Like: 29 °F
Forecast: 28 / 34 °F
Wind: 3 mph from South

Location: Hostomel

Current Time: Jan 27, 2015 at 9:32:48 PM

Latest Report: Jan 27, 2015 at 9:00 PM


Visibility: 3 mi

Pressure: 30.01 "Hg

Humidity: 100%

Dew point: 32 °F

Location of ChernobylLocation

Historic Weather in Chernobyl — Graph

°F

Chernobyl temperature yesterday

Maximum temperature yesterday: 32 °F (at 11:30 AM)
Minimum temperature yesterday: 27 °F (at 12:00 AM)
Average temperature yesterday: 29 °F

Past Weeks' High & Low Weather Summary

 TemperatureHumidityPressure
High46 °F (Jan 14, 11:30 AM)100% (Jan 15, 6:00 AM)30.24 "Hg (Jan 15, 6:00 AM)
Low23 °F (Jan 16, 5:00 AM)50% (Jan 14, 11:30 AM)29.89 "Hg (Jan 15, 1:00 AM)
Average34 °F93%30.07 "Hg
* Reported Jan 12 8:00 PM — Jan 27 8:00 PM, Chernobyl, Weather by CustomWeather, © 2014

Note: Actual official high and low records may vary slightly from our data, if they occured in-between our weather recording intervals... More about our weather records

Advertising

Chernobyl weather history for previous 24 hours

 ConditionsComfort  
Time TempWeatherWind HumidityBarometerVisibility
8:00 PM
Jan 27
32 °FChilly.6 mph100%30.01 "Hg2 mi
7:00 PM32 °FChilly.3 mph100%30.01 "Hg2 mi
6:00 PM32 °FChilly.3 mph100%30.04 "Hg4 mi
5:00 PM32 °FOvercast.6 mph100%30.01 "Hg5 mi
4:30 PM32 °FOvercast.6 mph100%30.01 "Hg4 mi
4:00 PM34 °FOvercast.3 mph93%30.01 "Hg5 mi
3:30 PM34 °FBroken clouds.3 mph93%30.01 "HgN/A
3:00 PM34 °FPartly sunny.3 mph93%30.01 "HgN/A
2:30 PM34 °FOvercast.3 mph93%30.01 "HgN/A
2:00 PM34 °FMostly cloudy.3 mph93%30.01 "HgN/A
1:30 PM32 °FMostly cloudy.3 mph93%30.01 "HgN/A
1:00 PM32 °FOvercast.6 mph93%30.04 "HgN/A
12:30 PM32 °FMostly cloudy.6 mph100%30.04 "Hg5 mi
12:00 PM32 °FMore clouds than sun.6 mph93%30.04 "Hg5 mi
11:30 AM32 °FMore clouds than sun.6 mph93%30.04 "Hg4 mi
11:00 AM30 °FMore clouds than sun.6 mph100%30.04 "Hg4 mi
10:30 AM30 °FIce fog.3 mph100%30.04 "Hg3 mi
10:00 AM30 °FIce fog.3 mph100%30.04 "Hg2 mi
9:30 AM30 °FLight snow. Ice fog.3 mph100%30.04 "Hg2 mi
9:00 AM30 °FLight snow. Ice fog.1 mph100%30.04 "Hg2 mi
8:00 AM28 °FLight snow. Ice fog.1 mph100%30.04 "Hg1 mi
7:00 AM28 °FLight snow. Ice fog.1 mph100%30.04 "Hg1 mi
6:00 AM30 °FIce fog.1 mph100%30.07 "Hg1 mi
5:00 AM28 °FLight snow. Ice fog.No wind100%30.07 "Hg1 mi
4:00 AM28 °FLight snow. Ice fog.1 mph100%30.07 "Hg1 mi
3:00 AM28 °FLight snow. Ice fog.1 mph100%30.07 "Hg1 mi
2:00 AM28 °FLight snow. Ice fog.No wind100%30.09 "Hg1 mi
1:00 AM28 °FLight snow. Ice fog.1 mph100%30.09 "Hg1 mi
12:00 AM27 °FLight snow. Ice fog.No wind100%30.12 "Hg1 mi
11:30 PM
Jan 26
28 °FLight snow. Ice fog.No wind100%30.12 "Hg1 mi
11:00 PM28 °FLight snow. Ice fog.No wind100%30.12 "Hg1 mi
10:30 PM28 °FLight snow. Clear.1 mph100%30.12 "Hg1 mi
10:00 PM28 °FSnow flurries. Mostly cloudy.No wind100%30.12 "Hg1 mi
9:30 PM28 °FSnow flurries. Mostly cloudy.1 mph100%30.12 "Hg2 mi
9:00 PM28 °FSnow flurries. Mostly cloudy.1 mph100%30.12 "Hg1 mi
Weather by CustomWeather, © 2014

See weather overviewHow to use our weather pages